Year,Month,Day,Hour,Minute,Value (Times are PST for temperature in C)
2013,12,05,00,00,-2.00
2013,12,05,00,01,-2.00
2013,12,05,00,02,-2.00
2013,12,05,00,03,-2.00
2013,12,05,00,04,-2.10
2013,12,05,00,05,-2.10
2013,12,05,00,06,-2.10
2013,12,05,00,07,-2.10
2013,12,05,00,08,-2.20
2013,12,05,00,09,-2.20
2013,12,05,00,10,-2.30
2013,12,05,00,11,-2.30
2013,12,05,00,12,-2.30
2013,12,05,00,13,-2.30
2013,12,05,00,14,-2.30
2013,12,05,00,15,-2.30
2013,12,05,00,16,-2.40
2013,12,05,00,17,-2.40
2013,12,05,00,18,-2.50
2013,12,05,00,19,-2.50
2013,12,05,00,20,-2.50
2013,12,05,00,21,-2.50
2013,12,05,00,22,-2.60
2013,12,05,00,23,-2.60
2013,12,05,00,24,-2.60
2013,12,05,00,25,-2.60
2013,12,05,00,26,-2.70
2013,12,05,00,27,-2.70
2013,12,05,00,28,-2.80
2013,12,05,00,29,-2.80
2013,12,05,00,30,-2.80
2013,12,05,00,31,-2.80
2013,12,05,00,32,-2.90
2013,12,05,00,33,-2.90
2013,12,05,00,34,-2.90
2013,12,05,00,35,-2.90
2013,12,05,00,36,-2.90
2013,12,05,00,37,-2.90
2013,12,05,00,38,-2.90
2013,12,05,00,39,-2.90
2013,12,05,00,40,-2.90
2013,12,05,00,41,-2.90
2013,12,05,00,42,-2.90
2013,12,05,00,43,-3.00
2013,12,05,00,44,-3.00
2013,12,05,00,45,-3.00
2013,12,05,00,46,-3.00
2013,12,05,00,47,-3.00
2013,12,05,00,48,-2.90
2013,12,05,00,49,-2.90
2013,12,05,00,50,-2.90
2013,12,05,00,51,-2.90
2013,12,05,00,52,-2.90
2013,12,05,00,53,-2.90
2013,12,05,00,54,-2.90
2013,12,05,00,55,-2.90
2013,12,05,00,56,-2.90
2013,12,05,00,57,-2.90
2013,12,05,00,58,-2.90
2013,12,05,00,59,-2.90
2013,12,05,01,00,-2.90
2013,12,05,01,01,-2.90
2013,12,05,01,02,-2.90
2013,12,05,01,03,-2.90
2013,12,05,01,04,-2.90
2013,12,05,01,05,-3.00
2013,12,05,01,06,-3.00
2013,12,05,01,07,-3.00
2013,12,05,01,08,-3.00
2013,12,05,01,09,-3.00
2013,12,05,01,10,-3.10
2013,12,05,01,11,-3.10
2013,12,05,01,12,-3.10
2013,12,05,01,13,-3.10
2013,12,05,01,14,-3.10
2013,12,05,01,15,-3.20
2013,12,05,01,16,-3.20
2013,12,05,01,17,-3.20
2013,12,05,01,18,-3.20
2013,12,05,01,19,-3.30
2013,12,05,01,20,-3.30
2013,12,05,01,21,-3.30
2013,12,05,01,22,-3.30
2013,12,05,01,23,-3.30
2013,12,05,01,24,-3.30
2013,12,05,01,25,-3.40
2013,12,05,01,26,-3.40
2013,12,05,01,27,-3.40
2013,12,05,01,28,-3.50
2013,12,05,01,29,-3.50
2013,12,05,01,30,-3.50
2013,12,05,01,31,-3.50
2013,12,05,01,32,-3.50
2013,12,05,01,33,-3.60
2013,12,05,01,34,-3.50
2013,12,05,01,35,-3.50
2013,12,05,01,36,-3.40
2013,12,05,01,37,-3.40
2013,12,05,01,38,-3.40
2013,12,05,01,39,-3.40
2013,12,05,01,40,-3.40
2013,12,05,01,41,-3.40
2013,12,05,01,42,-3.40
2013,12,05,01,43,-3.40
2013,12,05,01,44,-3.40
2013,12,05,01,45,-3.40
2013,12,05,01,46,-3.40
2013,12,05,01,47,-3.40
2013,12,05,01,48,-3.40
2013,12,05,01,49,-3.40
2013,12,05,01,50,-3.50
2013,12,05,01,51,-3.50
2013,12,05,01,52,-3.50
2013,12,05,01,53,-3.50
2013,12,05,01,54,-3.50
2013,12,05,01,55,-3.50
2013,12,05,01,56,-3.50
2013,12,05,01,57,-3.50
2013,12,05,01,58,-3.60
2013,12,05,01,59,-3.60
2013,12,05,02,00,-3.60
2013,12,05,02,01,-3.60
2013,12,05,02,02,-3.60
2013,12,05,02,03,-3.50
2013,12,05,02,04,-3.50
2013,12,05,02,05,-3.50
2013,12,05,02,06,-3.50
2013,12,05,02,07,-3.50
2013,12,05,02,08,-3.40
2013,12,05,02,09,-3.40
2013,12,05,02,10,-3.40
2013,12,05,02,11,-3.40
2013,12,05,02,12,-3.40
2013,12,05,02,13,-3.40
2013,12,05,02,14,-3.40
2013,12,05,02,15,-3.40
2013,12,05,02,16,-3.40
2013,12,05,02,17,-3.40
2013,12,05,02,18,-3.30
2013,12,05,02,19,-3.30
2013,12,05,02,20,-3.30
2013,12,05,02,21,-3.30
2013,12,05,02,22,-3.30
2013,12,05,02,23,-3.20
2013,12,05,02,24,-3.20
2013,12,05,02,25,-3.20
2013,12,05,02,26,-3.20
2013,12,05,02,27,-3.20
2013,12,05,02,28,-3.20
2013,12,05,02,29,-3.20
2013,12,05,02,30,-3.20
2013,12,05,02,31,-3.20
2013,12,05,02,32,-3.20
2013,12,05,02,33,-3.20
2013,12,05,02,34,-3.20
2013,12,05,02,35,-3.20
2013,12,05,02,36,-3.20
2013,12,05,02,37,-3.20
2013,12,05,02,38,-3.10
2013,12,05,02,39,-3.10
2013,12,05,02,40,-3.10
2013,12,05,02,41,-3.10
2013,12,05,02,42,-3.10
2013,12,05,02,43,-3.10
2013,12,05,02,44,-3.00
2013,12,05,02,45,-3.00
2013,12,05,02,46,-3.00
2013,12,05,02,47,-3.00
2013,12,05,02,48,-3.00
2013,12,05,02,49,-3.00
2013,12,05,02,50,-3.00
2013,12,05,02,51,-3.00
2013,12,05,02,52,-3.00
2013,12,05,02,53,-3.00
2013,12,05,02,54,-3.00
2013,12,05,02,55,-3.10
2013,12,05,02,56,-3.10
2013,12,05,02,57,-3.10
2013,12,05,02,58,-3.10
2013,12,05,02,59,-3.10
2013,12,05,03,00,-3.20
2013,12,05,03,01,-3.20
2013,12,05,03,02,-3.20
2013,12,05,03,03,-3.10
2013,12,05,03,04,-3.10
2013,12,05,03,05,-3.10
2013,12,05,03,06,-3.10
2013,12,05,03,07,-3.20
2013,12,05,03,08,-3.20
2013,12,05,03,09,-3.20
2013,12,05,03,10,-3.20
2013,12,05,03,11,-3.20
2013,12,05,03,12,-3.20
2013,12,05,03,13,-3.20
2013,12,05,03,14,-3.20
2013,12,05,03,15,-3.20
2013,12,05,03,16,-3.30
2013,12,05,03,17,-3.30
2013,12,05,03,18,-3.30
2013,12,05,03,19,-3.30
2013,12,05,03,20,-3.20
2013,12,05,03,21,-3.20
2013,12,05,03,22,-3.20
2013,12,05,03,23,-3.20
2013,12,05,03,24,-3.20
2013,12,05,03,25,-3.20
2013,12,05,03,26,-3.20
2013,12,05,03,27,-3.10
2013,12,05,03,28,-3.10
2013,12,05,03,29,-3.10
2013,12,05,03,30,-3.10
2013,12,05,03,31,-3.10
2013,12,05,03,32,-3.10
2013,12,05,03,33,-3.10
2013,12,05,03,34,-3.20
2013,12,05,03,35,-3.20
2013,12,05,03,36,-3.20
2013,12,05,03,37,-3.20
2013,12,05,03,38,-3.20
2013,12,05,03,39,-3.20
2013,12,05,03,40,-3.20
2013,12,05,03,41,-3.20
2013,12,05,03,42,-3.20
2013,12,05,03,43,-3.20
2013,12,05,03,44,-3.20
2013,12,05,03,45,-3.20
2013,12,05,03,46,-3.20
2013,12,05,03,47,-3.20
2013,12,05,03,48,-3.20
2013,12,05,03,49,-3.20
2013,12,05,03,50,-3.20
2013,12,05,03,51,-3.20
2013,12,05,03,52,-3.20
2013,12,05,03,53,-3.20
2013,12,05,03,54,-3.10
2013,12,05,03,55,-3.10
2013,12,05,03,56,-3.10
2013,12,05,03,57,-3.10
2013,12,05,03,58,-3.10
2013,12,05,03,59,-3.10
2013,12,05,04,00,-3.10
2013,12,05,04,01,-3.10
2013,12,05,04,02,-3.10
2013,12,05,04,03,-3.10
2013,12,05,04,04,-3.10
2013,12,05,04,05,-3.20
2013,12,05,04,06,-3.20
2013,12,05,04,07,-3.20
2013,12,05,04,08,-3.20
2013,12,05,04,09,-3.20
2013,12,05,04,10,-3.20
2013,12,05,04,11,-3.20
2013,12,05,04,12,-3.20
2013,12,05,04,13,-3.20
2013,12,05,04,14,-3.20
2013,12,05,04,15,-3.20
2013,12,05,04,16,-3.20
2013,12,05,04,17,-3.20
2013,12,05,04,18,-3.20
2013,12,05,04,19,-3.20
2013,12,05,04,20,-3.20
2013,12,05,04,21,-3.20
2013,12,05,04,22,-3.20
2013,12,05,04,23,-3.20
2013,12,05,04,24,-3.20
2013,12,05,04,25,-3.20
2013,12,05,04,26,-3.20
2013,12,05,04,27,-3.20
2013,12,05,04,28,-3.30
2013,12,05,04,29,-3.30
2013,12,05,04,30,-3.30
2013,12,05,04,31,-3.30
2013,12,05,04,32,-3.30
2013,12,05,04,33,-3.30
2013,12,05,04,34,-3.30
2013,12,05,04,35,-3.30
2013,12,05,04,36,-3.30
2013,12,05,04,37,-3.30
2013,12,05,04,38,-3.30
2013,12,05,04,39,-3.30
2013,12,05,04,40,-3.30
2013,12,05,04,41,-3.30
2013,12,05,04,42,-3.30
2013,12,05,04,43,-3.30
2013,12,05,04,44,-3.30
2013,12,05,04,45,-3.30
2013,12,05,04,46,-3.30
2013,12,05,04,47,-3.30
2013,12,05,04,48,-3.30
2013,12,05,04,49,-3.30
2013,12,05,04,50,-3.30
2013,12,05,04,51,-3.30
2013,12,05,04,52,-3.30
2013,12,05,04,53,-3.30
2013,12,05,04,54,-3.30
2013,12,05,04,55,-3.30
2013,12,05,04,56,-3.30
2013,12,05,04,57,-3.30
2013,12,05,04,58,-3.20
2013,12,05,04,59,-3.20
2013,12,05,05,00,-3.20
2013,12,05,05,01,-3.20
2013,12,05,05,02,-3.20
2013,12,05,05,03,-3.20
2013,12,05,05,04,-3.20
2013,12,05,05,05,-3.30
2013,12,05,05,06,-3.30
2013,12,05,05,07,-3.30
2013,12,05,05,08,-3.30
2013,12,05,05,09,-3.30
2013,12,05,05,10,-3.30
2013,12,05,05,11,-3.30
2013,12,05,05,12,-3.30
2013,12,05,05,13,-3.30
2013,12,05,05,14,-3.30
2013,12,05,05,15,-3.30
2013,12,05,05,16,-3.30
2013,12,05,05,17,-3.30
2013,12,05,05,18,-3.30
2013,12,05,05,19,-3.30
2013,12,05,05,20,-3.30
2013,12,05,05,21,-3.30
2013,12,05,05,22,-3.30
2013,12,05,05,23,-3.30
2013,12,05,05,24,-3.30
2013,12,05,05,25,-3.30
2013,12,05,05,26,-3.30
2013,12,05,05,27,-3.30
2013,12,05,05,28,-3.30
2013,12,05,05,29,-3.30
2013,12,05,05,30,-3.30
2013,12,05,05,31,-3.30
2013,12,05,05,32,-3.30
2013,12,05,05,33,-3.30
2013,12,05,05,34,-3.30
2013,12,05,05,35,-3.40
2013,12,05,05,36,-3.40
2013,12,05,05,37,-3.40
2013,12,05,05,38,-3.40
2013,12,05,05,39,-3.40
2013,12,05,05,40,-3.40
2013,12,05,05,41,-3.40
2013,12,05,05,42,-3.40
2013,12,05,05,43,-3.50
2013,12,05,05,44,-3.50
2013,12,05,05,45,-3.50
2013,12,05,05,46,-3.50
2013,12,05,05,47,-3.50
2013,12,05,05,48,-3.50
2013,12,05,05,49,-3.50
2013,12,05,05,50,-3.50
2013,12,05,05,51,-3.60
2013,12,05,05,52,-3.60
2013,12,05,05,53,-3.60
2013,12,05,05,54,-3.60
2013,12,05,05,55,-3.60
2013,12,05,05,56,-3.50
2013,12,05,05,57,-3.50
2013,12,05,05,58,-3.50
2013,12,05,05,59,-3.50
2013,12,05,06,00,-3.50
2013,12,05,06,01,-3.50
2013,12,05,06,02,-3.50
2013,12,05,06,03,-3.40
2013,12,05,06,04,-3.40
2013,12,05,06,05,-3.40
2013,12,05,06,06,-3.40
2013,12,05,06,07,-3.30
2013,12,05,06,08,-3.30
2013,12,05,06,09,-3.30
2013,12,05,06,10,-3.30
2013,12,05,06,11,-3.30
2013,12,05,06,12,-3.30
2013,12,05,06,13,-3.30
2013,12,05,06,14,-3.30
2013,12,05,06,15,-3.30
2013,12,05,06,16,-3.30
2013,12,05,06,17,-3.30
2013,12,05,06,18,-3.30
2013,12,05,06,19,-3.30
2013,12,05,06,20,-3.30
2013,12,05,06,21,-3.30
2013,12,05,06,22,-3.30
2013,12,05,06,23,-3.30
2013,12,05,06,24,-3.30
2013,12,05,06,25,-3.30
2013,12,05,06,26,-3.30
2013,12,05,06,27,-3.30
2013,12,05,06,28,-3.30
2013,12,05,06,29,-3.30
2013,12,05,06,30,-3.30
2013,12,05,06,31,-3.30
2013,12,05,06,32,-3.30
2013,12,05,06,33,-3.30
2013,12,05,06,34,-3.30
2013,12,05,06,35,-3.30
2013,12,05,06,36,-3.30
2013,12,05,06,37,-3.30
2013,12,05,06,38,-3.30
2013,12,05,06,39,-3.30
2013,12,05,06,40,-3.30
2013,12,05,06,41,-3.30
2013,12,05,06,42,-3.30
2013,12,05,06,43,-3.30
2013,12,05,06,44,-3.30
2013,12,05,06,45,-3.30
2013,12,05,06,46,-3.30
2013,12,05,06,47,-3.30
2013,12,05,06,48,-3.30
2013,12,05,06,49,-3.30
2013,12,05,06,50,-3.30
2013,12,05,06,51,-3.30
2013,12,05,06,52,-3.30
2013,12,05,06,53,-3.20
2013,12,05,06,54,-3.20
2013,12,05,06,55,-3.20
2013,12,05,06,56,-3.20
2013,12,05,06,57,-3.20
2013,12,05,06,58,-3.20
2013,12,05,06,59,-3.20
2013,12,05,07,00,-3.20
2013,12,05,07,01,-3.20
2013,12,05,07,02,-3.20
2013,12,05,07,03,-3.20
2013,12,05,07,04,-3.20
2013,12,05,07,05,-3.20
2013,12,05,07,06,-3.20
2013,12,05,07,07,-3.20
2013,12,05,07,08,-3.20
2013,12,05,07,09,-3.10
2013,12,05,07,10,-3.10
2013,12,05,07,11,-3.10
2013,12,05,07,12,-3.10
2013,12,05,07,13,-3.10
2013,12,05,07,14,-3.10
2013,12,05,07,15,-3.10
2013,12,05,07,16,-3.10
2013,12,05,07,17,-3.10
2013,12,05,07,18,-3.10
2013,12,05,07,19,-3.00
2013,12,05,07,20,-3.00
2013,12,05,07,21,-3.00
2013,12,05,07,22,-3.00
2013,12,05,07,23,-3.00
2013,12,05,07,24,-3.00
2013,12,05,07,25,-3.00
2013,12,05,07,26,-3.00
2013,12,05,07,27,-3.00
2013,12,05,07,28,-3.00
2013,12,05,07,29,-2.90
2013,12,05,07,30,-2.90
2013,12,05,07,31,-2.90
2013,12,05,07,32,-2.90
2013,12,05,07,33,-2.90
2013,12,05,07,34,-2.90
2013,12,05,07,35,-2.90
2013,12,05,07,36,-2.90
2013,12,05,07,37,-2.90
2013,12,05,07,38,-2.90
2013,12,05,07,39,-2.90
2013,12,05,07,40,-2.90
2013,12,05,07,41,-2.80
2013,12,05,07,42,-2.80
2013,12,05,07,43,-2.80
2013,12,05,07,44,-2.80
2013,12,05,07,45,-2.80
2013,12,05,07,46,-2.80
2013,12,05,07,47,-2.80
2013,12,05,07,48,-2.80
2013,12,05,07,49,-2.80
2013,12,05,07,50,-2.80
2013,12,05,07,51,-2.80
2013,12,05,07,52,-2.80
2013,12,05,07,53,-2.80
2013,12,05,07,54,-2.80
2013,12,05,07,55,-2.80
2013,12,05,07,56,-2.80
2013,12,05,07,57,-2.80
2013,12,05,07,58,-2.80
2013,12,05,07,59,-2.80
2013,12,05,08,00,-2.80
2013,12,05,08,01,-2.80
2013,12,05,08,02,-2.70
2013,12,05,08,03,-2.70
2013,12,05,08,04,-2.70
2013,12,05,08,05,-2.70
2013,12,05,08,06,-2.70
2013,12,05,08,07,-2.70
2013,12,05,08,08,-2.70
2013,12,05,08,09,-2.70
2013,12,05,08,10,-2.70
2013,12,05,08,11,-2.70
2013,12,05,08,12,-2.70
2013,12,05,08,13,-2.70
2013,12,05,08,14,-2.60
2013,12,05,08,15,-2.60
2013,12,05,08,16,-2.60
2013,12,05,08,17,-2.60
2013,12,05,08,18,-2.60
2013,12,05,08,19,-2.60
2013,12,05,08,20,-2.60
2013,12,05,08,21,-2.50
2013,12,05,08,22,-2.50
2013,12,05,08,23,-2.50
2013,12,05,08,24,-2.50
2013,12,05,08,25,-2.50
2013,12,05,08,26,-2.50
2013,12,05,08,27,-2.50
2013,12,05,08,28,-2.50
2013,12,05,08,29,-2.50
2013,12,05,08,30,-2.50
2013,12,05,08,31,-2.40
2013,12,05,08,32,-2.40
2013,12,05,08,33,-2.40
2013,12,05,08,34,-2.40
2013,12,05,08,35,-2.40
2013,12,05,08,36,-2.40
2013,12,05,08,37,-2.30
2013,12,05,08,38,-2.30
2013,12,05,08,39,-2.30
2013,12,05,08,40,-2.30
2013,12,05,08,41,-2.20
2013,12,05,08,42,-2.20
2013,12,05,08,43,-2.20
2013,12,05,08,44,-2.10
2013,12,05,08,45,-2.10
2013,12,05,08,46,-2.10
2013,12,05,08,47,-2.00
2013,12,05,08,48,-2.00
2013,12,05,08,49,-2.00
2013,12,05,08,50,-1.90
2013,12,05,08,51,-1.90
2013,12,05,08,52,-1.80
2013,12,05,08,53,-1.80
2013,12,05,08,54,-1.80
2013,12,05,08,55,-1.80
2013,12,05,08,56,-1.70
2013,12,05,08,57,-1.70
2013,12,05,08,58,-1.60
2013,12,05,08,59,-1.60
2013,12,05,09,00,-1.60
2013,12,05,09,01,-1.60
2013,12,05,09,02,-1.50
2013,12,05,09,03,-1.50
2013,12,05,09,04,-1.50
2013,12,05,09,05,-1.40
2013,12,05,09,06,-1.40
2013,12,05,09,07,-1.40
2013,12,05,09,08,-1.40
2013,12,05,09,09,-1.40
2013,12,05,09,10,-1.40
2013,12,05,09,11,-1.40
2013,12,05,09,12,-1.40
2013,12,05,09,13,-1.40
2013,12,05,09,14,-1.40
2013,12,05,09,15,-1.40
2013,12,05,09,16,-1.40
2013,12,05,09,17,-1.40
2013,12,05,09,18,-1.40
2013,12,05,09,19,-1.40
2013,12,05,09,20,-1.40
2013,12,05,09,21,-1.40
2013,12,05,09,22,-1.40
2013,12,05,09,23,-1.40
2013,12,05,09,24,-1.40
2013,12,05,09,25,-1.40
2013,12,05,09,26,-1.40
2013,12,05,09,27,-1.40
2013,12,05,09,28,-1.40
2013,12,05,09,29,-1.40
2013,12,05,09,30,-1.40
2013,12,05,09,31,-1.40
2013,12,05,09,32,-1.40
2013,12,05,09,33,-1.40
2013,12,05,09,34,-1.50
2013,12,05,09,35,-1.50
2013,12,05,09,36,-1.50
2013,12,05,09,37,-1.50
2013,12,05,09,38,-1.50
2013,12,05,09,39,-1.50
2013,12,05,09,40,-1.50
2013,12,05,09,41,-1.50
2013,12,05,09,42,-1.50
2013,12,05,09,43,-1.50
2013,12,05,09,44,-1.50
2013,12,05,09,45,-1.50
2013,12,05,09,46,-1.50
2013,12,05,09,47,-1.50
2013,12,05,09,48,-1.50
2013,12,05,09,49,-1.50
2013,12,05,09,50,-1.50
2013,12,05,09,51,-1.50
2013,12,05,09,52,-1.50
2013,12,05,09,53,-1.50
2013,12,05,09,54,-1.60
2013,12,05,09,55,-1.60
2013,12,05,09,56,-1.50
2013,12,05,09,57,-1.50
2013,12,05,09,58,-1.60
2013,12,05,09,59,-1.60
2013,12,05,10,00,-1.60
2013,12,05,10,01,-1.60
2013,12,05,10,02,-1.60
2013,12,05,10,03,-1.50
2013,12,05,10,04,-1.50
2013,12,05,10,05,-1.50
2013,12,05,10,06,-1.50
2013,12,05,10,07,-1.50
2013,12,05,10,08,-1.50
2013,12,05,10,09,-1.50
2013,12,05,10,10,-1.50
2013,12,05,10,11,-1.50
2013,12,05,10,12,-1.50
2013,12,05,10,13,-1.50
2013,12,05,10,14,-1.40
2013,12,05,10,15,-1.40
2013,12,05,10,16,-1.40
2013,12,05,10,17,-1.40
2013,12,05,10,18,-1.40
2013,12,05,10,19,-1.40
2013,12,05,10,20,-1.40
2013,12,05,10,21,-1.40
2013,12,05,10,22,-1.40
2013,12,05,10,23,-1.40
2013,12,05,10,24,-1.40
2013,12,05,10,25,-1.40
2013,12,05,10,26,-1.40
2013,12,05,10,27,-1.40
2013,12,05,10,28,-1.40
2013,12,05,10,29,-1.40
2013,12,05,10,30,-1.40
2013,12,05,10,31,-1.40
2013,12,05,10,32,-1.40
2013,12,05,10,33,-1.40
2013,12,05,10,34,-1.40
2013,12,05,10,35,-1.40
2013,12,05,10,36,-1.40
2013,12,05,10,37,-1.40
2013,12,05,10,38,-1.40
2013,12,05,10,39,-1.40
2013,12,05,10,40,-1.40
2013,12,05,10,41,-1.40
2013,12,05,10,42,-1.40
2013,12,05,10,43,-1.40
2013,12,05,10,44,-1.40
2013,12,05,10,45,-1.40
2013,12,05,10,46,-1.40
2013,12,05,10,47,-1.40
2013,12,05,10,48,-1.40
2013,12,05,10,49,-1.40
2013,12,05,10,50,-1.40
2013,12,05,10,51,-1.30
2013,12,05,10,52,-1.30
2013,12,05,10,53,-1.30
2013,12,05,10,54,-1.30
2013,12,05,10,55,-1.30
2013,12,05,10,56,-1.30
2013,12,05,10,57,-1.30
2013,12,05,10,58,-1.30
2013,12,05,10,59,-1.20
2013,12,05,11,00,-1.20
2013,12,05,11,01,-1.20
2013,12,05,11,02,-1.20
2013,12,05,11,03,-1.20
2013,12,05,11,04,-1.20
2013,12,05,11,05,-1.20
2013,12,05,11,06,-1.10
2013,12,05,11,07,-1.10
2013,12,05,11,08,-1.10
2013,12,05,11,09,-1.10
2013,12,05,11,10,-1.10
2013,12,05,11,11,-1.10
2013,12,05,11,12,-1.10
2013,12,05,11,13,-1.10
2013,12,05,11,14,-1.10
2013,12,05,11,15,-1.10
2013,12,05,11,16,-1.10
2013,12,05,11,17,-1.10
2013,12,05,11,18,-1.10
2013,12,05,11,19,-1.10
2013,12,05,11,20,-1.00
2013,12,05,11,21,-0.90
2013,12,05,11,22,-0.90
2013,12,05,11,23,-0.90
2013,12,05,11,24,-0.90
2013,12,05,11,25,-0.90
2013,12,05,11,26,-0.90
2013,12,05,11,27,-0.90
2013,12,05,11,28,-0.90
2013,12,05,11,29,-0.90
2013,12,05,11,30,-0.90
2013,12,05,11,31,-0.90
2013,12,05,11,32,-0.90
2013,12,05,11,33,-0.90
2013,12,05,11,34,-0.90
2013,12,05,11,35,-0.90
2013,12,05,11,36,-0.90
2013,12,05,11,37,-0.90
2013,12,05,11,38,-0.90
2013,12,05,11,39,-0.90
2013,12,05,11,40,-0.90
2013,12,05,11,41,-0.90
2013,12,05,11,42,-0.90
2013,12,05,11,43,-0.90
2013,12,05,11,44,-0.90
2013,12,05,11,45,-0.90
2013,12,05,11,46,-0.90
2013,12,05,11,47,-0.90
2013,12,05,11,48,-0.90
2013,12,05,11,49,-0.90
2013,12,05,11,50,-0.90
2013,12,05,11,51,-0.90
2013,12,05,11,52,-0.90
2013,12,05,11,53,-0.90
2013,12,05,11,54,-0.90
2013,12,05,11,55,-0.90
2013,12,05,11,56,-0.90
2013,12,05,11,57,-0.80
2013,12,05,11,58,-0.80
2013,12,05,11,59,-0.80
2013,12,05,12,00,-0.80
2013,12,05,12,01,-0.80
2013,12,05,12,02,-0.80
2013,12,05,12,03,-0.80
2013,12,05,12,04,-0.90
2013,12,05,12,05,-0.90
2013,12,05,12,06,-0.90
2013,12,05,12,07,-0.90
2013,12,05,12,08,-0.90
2013,12,05,12,09,-0.90
2013,12,05,12,10,-0.90
2013,12,05,12,11,-0.90
2013,12,05,12,12,-0.90
2013,12,05,12,13,-0.90
2013,12,05,12,14,-0.90
2013,12,05,12,15,-0.90
2013,12,05,12,16,-0.90
2013,12,05,12,17,-0.90
2013,12,05,12,18,-0.90
2013,12,05,12,19,-0.90
2013,12,05,12,20,-0.90
2013,12,05,12,21,-0.90
2013,12,05,12,22,-0.90
2013,12,05,12,23,-0.90
2013,12,05,12,24,-0.90
2013,12,05,12,25,-0.90
2013,12,05,12,26,-0.90
2013,12,05,12,27,-0.90
2013,12,05,12,28,-0.90
2013,12,05,12,29,-0.90
2013,12,05,12,30,-0.90
2013,12,05,12,31,-0.90
2013,12,05,12,32,-0.90
2013,12,05,12,33,-0.90
2013,12,05,12,34,-0.90
2013,12,05,12,35,-0.90
2013,12,05,12,36,-0.90
2013,12,05,12,37,-0.90
2013,12,05,12,38,-0.90
2013,12,05,12,39,-0.90
2013,12,05,12,40,-0.90
2013,12,05,12,41,-0.90
2013,12,05,12,42,-0.90
2013,12,05,12,43,-0.90
2013,12,05,12,44,-0.90
2013,12,05,12,45,-0.90
2013,12,05,12,46,-0.90
2013,12,05,12,47,-0.90
2013,12,05,12,48,-0.90
2013,12,05,12,49,-0.90
2013,12,05,12,50,-0.90
2013,12,05,12,51,-0.90
2013,12,05,12,52,-0.90
2013,12,05,12,53,-0.90
2013,12,05,12,54,-0.90
2013,12,05,12,55,-0.90
2013,12,05,12,56,-0.90
2013,12,05,12,57,-0.90
2013,12,05,12,58,-0.90
2013,12,05,12,59,-0.90
2013,12,05,13,00,-0.90
2013,12,05,13,01,-0.80
2013,12,05,13,02,-0.80
2013,12,05,13,03,-0.80
2013,12,05,13,04,-0.80
2013,12,05,13,05,-0.80
2013,12,05,13,06,-0.80
2013,12,05,13,07,-0.70
2013,12,05,13,08,-0.70
2013,12,05,13,09,-0.70
2013,12,05,13,10,-0.70
2013,12,05,13,11,-0.70
2013,12,05,13,12,-0.70
2013,12,05,13,13,-0.70
2013,12,05,13,14,-0.70
2013,12,05,13,15,-0.70
2013,12,05,13,16,-0.70
2013,12,05,13,17,-0.70
2013,12,05,13,18,-0.70
2013,12,05,13,19,-0.80
2013,12,05,13,20,-0.80
2013,12,05,13,21,-0.80
2013,12,05,13,22,-0.80
2013,12,05,13,23,-0.80
2013,12,05,13,24,-0.80
2013,12,05,13,25,-0.80
2013,12,05,13,26,-0.80
2013,12,05,13,27,-0.80
2013,12,05,13,28,-0.80
2013,12,05,13,29,-0.80
2013,12,05,13,30,-0.80
2013,12,05,13,31,-0.80
2013,12,05,13,32,-0.80
2013,12,05,13,33,-0.80
2013,12,05,13,34,-0.70
2013,12,05,13,35,-0.70
2013,12,05,13,36,-0.70
2013,12,05,13,37,-0.70
2013,12,05,13,38,-0.70
2013,12,05,13,39,-0.70
2013,12,05,13,40,-0.70
2013,12,05,13,41,-0.70
2013,12,05,13,42,-0.70
2013,12,05,13,43,-0.70
2013,12,05,13,44,-0.70
2013,12,05,13,45,-0.70
2013,12,05,13,46,-0.70
2013,12,05,13,47,-0.70
2013,12,05,13,48,-0.70
2013,12,05,13,49,-0.70
2013,12,05,13,50,-0.70
2013,12,05,13,51,-0.70
2013,12,05,13,52,-0.70
2013,12,05,13,53,-0.70
2013,12,05,13,54,-0.70
2013,12,05,13,55,-0.60
2013,12,05,13,56,-0.60
2013,12,05,13,57,-0.60
2013,12,05,13,58,-0.60
2013,12,05,13,59,-0.60
2013,12,05,14,00,-0.60
2013,12,05,14,01,-0.60
2013,12,05,14,02,-0.60
2013,12,05,14,03,-0.60
2013,12,05,14,04,-0.60
2013,12,05,14,05,-0.60
2013,12,05,14,06,-0.60
2013,12,05,14,07,-0.60
2013,12,05,14,08,-0.60
2013,12,05,14,09,-0.60
2013,12,05,14,10,-0.60
2013,12,05,14,11,-0.60
2013,12,05,14,12,-0.60
2013,12,05,14,13,-0.60
2013,12,05,14,14,-0.60
2013,12,05,14,15,-0.60
2013,12,05,14,16,-0.60
2013,12,05,14,17,-0.60
2013,12,05,14,18,-0.60
2013,12,05,14,19,-0.60
2013,12,05,14,20,-0.60
2013,12,05,14,21,-0.60
2013,12,05,14,22,-0.60
2013,12,05,14,23,-0.60
2013,12,05,14,24,-0.60
2013,12,05,14,25,-0.60
2013,12,05,14,26,-0.60
2013,12,05,14,27,-0.60
2013,12,05,14,28,-0.60
2013,12,05,14,29,-0.60
2013,12,05,14,30,-0.60
2013,12,05,14,31,-0.60
2013,12,05,14,32,-0.60
2013,12,05,14,33,-0.60
2013,12,05,14,34,-0.60
2013,12,05,14,35,-0.60
2013,12,05,14,36,-0.60
2013,12,05,14,37,-0.70
2013,12,05,14,38,-0.70
2013,12,05,14,39,-0.70
2013,12,05,14,40,-0.70
2013,12,05,14,41,-0.70
2013,12,05,14,42,-0.70
2013,12,05,14,43,-0.70
2013,12,05,14,44,-0.70
2013,12,05,14,45,-0.70
2013,12,05,14,46,-0.70
2013,12,05,14,47,-0.70
2013,12,05,14,48,-0.70
2013,12,05,14,49,-0.70
2013,12,05,14,50,-0.70
2013,12,05,14,51,-0.80
2013,12,05,14,52,-0.80
2013,12,05,14,53,-0.80
2013,12,05,14,54,-0.80
2013,12,05,14,55,-0.80
2013,12,05,14,56,-0.80
2013,12,05,14,57,-0.80
2013,12,05,14,58,-0.80
2013,12,05,14,59,-0.80
2013,12,05,15,00,-0.80
2013,12,05,15,01,-0.80
2013,12,05,15,02,-0.80
2013,12,05,15,03,-0.80
2013,12,05,15,04,-0.80
2013,12,05,15,05,-0.80
2013,12,05,15,06,-0.80
2013,12,05,15,07,-0.80
2013,12,05,15,08,-0.80
2013,12,05,15,09,-0.80
2013,12,05,15,10,-0.80
2013,12,05,15,11,-0.80
2013,12,05,15,12,-0.80
2013,12,05,15,13,-0.90
2013,12,05,15,14,-0.90
2013,12,05,15,15,-0.90
2013,12,05,15,16,-0.90
2013,12,05,15,17,-0.90
2013,12,05,15,18,-0.90
2013,12,05,15,19,-0.90
2013,12,05,15,20,-0.90
2013,12,05,15,21,-0.90
2013,12,05,15,22,-0.90
2013,12,05,15,23,-0.90
2013,12,05,15,24,-0.90
2013,12,05,15,25,-0.90
2013,12,05,15,26,-0.90
2013,12,05,15,27,-0.90
2013,12,05,15,28,-0.90
2013,12,05,15,29,-0.90
2013,12,05,15,30,-0.90
2013,12,05,15,31,-0.90
2013,12,05,15,32,-0.90
2013,12,05,15,33,-0.90
2013,12,05,15,34,-0.90
2013,12,05,15,35,-0.90
2013,12,05,15,36,-0.90
2013,12,05,15,37,-0.90
2013,12,05,15,38,-0.90
2013,12,05,15,39,-0.90
2013,12,05,15,40,-0.90
2013,12,05,15,41,-0.90
2013,12,05,15,42,-0.90
2013,12,05,15,43,-0.90
2013,12,05,15,44,-0.90
2013,12,05,15,45,-0.90
2013,12,05,15,46,-0.90
2013,12,05,15,47,-1.00
2013,12,05,15,48,-1.10
2013,12,05,15,49,-1.10
2013,12,05,15,50,-1.10
2013,12,05,15,51,-1.10
2013,12,05,15,52,-1.10
2013,12,05,15,53,-1.10
2013,12,05,15,54,-1.10
2013,12,05,15,55,-1.10
2013,12,05,15,56,-1.10
2013,12,05,15,57,-1.10
2013,12,05,15,58,-1.10
2013,12,05,15,59,-1.10
2013,12,05,16,00,-1.10
2013,12,05,16,01,-1.10
2013,12,05,16,02,-1.10
2013,12,05,16,03,-1.10
2013,12,05,16,04,-1.10
2013,12,05,16,05,-1.10
2013,12,05,16,06,-1.10
2013,12,05,16,07,-1.10
2013,12,05,16,08,-1.10
2013,12,05,16,09,-1.10
2013,12,05,16,10,-1.10
2013,12,05,16,11,-1.10
2013,12,05,16,12,-1.10
2013,12,05,16,13,-1.10
2013,12,05,16,14,-1.10
2013,12,05,16,15,-1.10
2013,12,05,16,16,-1.10
2013,12,05,16,17,-1.10
2013,12,05,16,18,-1.10
2013,12,05,16,19,-1.10
2013,12,05,16,20,-1.10
2013,12,05,16,21,-1.10
2013,12,05,16,22,-1.10
2013,12,05,16,23,-1.10
2013,12,05,16,24,-1.10
2013,12,05,16,25,-1.20
2013,12,05,16,26,-1.20
2013,12,05,16,27,-1.20
2013,12,05,16,28,-1.20
2013,12,05,16,29,-1.20
2013,12,05,16,30,-1.20
2013,12,05,16,31,-1.20
2013,12,05,16,32,-1.20
2013,12,05,16,33,-1.20
2013,12,05,16,34,-1.20
2013,12,05,16,35,-1.20
2013,12,05,16,36,-1.20
2013,12,05,16,37,-1.20
2013,12,05,16,38,-1.20
2013,12,05,16,39,-1.20
2013,12,05,16,40,-1.20
2013,12,05,16,41,-1.20
2013,12,05,16,42,-1.20
2013,12,05,16,43,-1.20
2013,12,05,16,44,-1.20
2013,12,05,16,45,-1.30
2013,12,05,16,46,-1.30
2013,12,05,16,47,-1.30
2013,12,05,16,48,-1.30
2013,12,05,16,49,-1.30
2013,12,05,16,50,-1.30
2013,12,05,16,51,-1.30
2013,12,05,16,52,-1.30
2013,12,05,16,53,-1.40
2013,12,05,16,54,-1.40
2013,12,05,16,55,-1.40
2013,12,05,16,56,-1.40
2013,12,05,16,57,-1.40
2013,12,05,16,58,-1.40
2013,12,05,16,59,-1.40
2013,12,05,17,00,-1.40
2013,12,05,17,01,-1.40
2013,12,05,17,02,-1.40
2013,12,05,17,03,-1.40
2013,12,05,17,04,-1.40
2013,12,05,17,05,-1.40
2013,12,05,17,06,-1.40
2013,12,05,17,07,-1.40
2013,12,05,17,08,-1.50
2013,12,05,17,09,-1.50
2013,12,05,17,10,-1.50
2013,12,05,17,11,-1.50
2013,12,05,17,12,-1.50
2013,12,05,17,13,-1.50
2013,12,05,17,14,-1.50
2013,12,05,17,15,-1.50
2013,12,05,17,16,-1.60
2013,12,05,17,17,-1.60
2013,12,05,17,18,-1.60
2013,12,05,17,19,-1.60